CW1936 Weather Reports


Display with metric or nautical units.
time (UTC)temp
F
wind
direction
speed
MPH
gust
MPH
rain 1hr
in
rain 24hr
in
rain mn
in
humidity
%
barometer
mb
20260507000032 58 270 0.0 0.0 0.00 0.00 0.00 71 1015.7
20260506234527 58 270 0.0 0.0 0.00 0.00 0.00 70 1015.6
20260506233026 58 270 0.0 0.0 0.00 0.00 0.00 76 1015.6
20260506231525 58 270 0.0 0.0 0.00 0.00 0.00 74 1015.7
20260506230038 58 270 0.0 0.0 0.00 0.00 0.00 74 1015.8
20260506224523 59 270 0.0 0.0 0.00 0.00 0.00 72 1016.0
20260506223028 58 270 0.0 0.0 0.00 0.00 0.00 75 1016.0
20260506221519 58 270 0.0 0.0 0.00 0.00 0.00 76 1016.1
20260506220019 58 270 0.0 0.0 0.00 0.00 0.00 77 1016.2
20260506214518 58 270 0.0 0.0 0.00 0.00 0.00 76 1016.1
20260506213017 58 270 0.0 0.0 0.00 0.00 0.00 77 1016.2
20260506211512 59 270 0.0 0.0 0.00 0.00 0.00 80 1016.4
20260506210017 59 270 0.0 0.0 0.00 0.00 0.00 79 1016.4
20260506204510 59 270 0.0 0.0 0.00 0.00 0.00 80 1016.5
20260506203010 60 270 0.0 0.0 0.00 0.00 0.00 79 1016.6
20260506201511 60 270 0.0 0.0 0.00 0.00 0.00 81 1016.6
20260506200007 61 270 0.0 0.0 0.00 0.00 0.00 80 1016.6
20260506194507 62 267 0.0 0.0 0.00 0.00 0.00 80 1016.6
20260506193007 62 263 0.0 0.0 0.00 0.00 0.00 81 1016.5
20260506191509 62 294 0.0 0.0 0.00 0.00 0.00 82 1016.4
20260506190002 62 313 0.0 0.0 0.00 0.00 0.00 84 1016.2
20260506184504 62 320 0.0 0.0 0.00 0.00 0.00 84 1016.1
20260506183106 62 339 0.0 0.0 0.00 0.00 0.00 84 1015.8
20260506163108 67 47 0.0 0.0 0.00 0.00 0.00 77 1015.0
20260506161557 67 47 0.0 0.0 0.00 0.00 0.00 76 1015.0
20260506160113 69 47 0.0 0.0 0.00 0.00 0.00 72 1015.0
20260506154557 71 47 0.0 0.0 0.00 0.00 0.00 67 1015.1
20260506153054 72 47 0.0 1.0 0.00 0.00 0.00 67 1015.1
20260506151556 71 48 0.0 1.0 0.00 0.00 0.00 69 1015.0
20260506124600 72 94 0.0 0.0 0.00 0.00 0.00 62 1015.4
20260506123059 72 79 0.0 0.0 0.00 0.00 0.00 62 1015.5
20260506121600 72 92 0.0 0.0 0.00 0.00 0.00 59 1015.7
20260506120107 73 86 0.0 1.0 0.00 0.00 0.00 57 1015.8
20260506114556 73 93 0.0 1.0 0.00 0.00 0.00 56 1015.9
20260506113056 73 96 0.0 2.0 0.00 0.00 0.00 58 1016.0
20260506111554 73 118 0.0 2.0 0.00 0.00 0.00 57 1016.0
20260506110107 73 88 0.0 1.0 0.00 0.00 0.00 56 1016.1
20260506104611 73 101 0.0 2.0 0.00 0.00 0.00 56 1016.1
20260506103053 73 90 0.0 0.0 0.00 0.00 0.00 56 1016.1
20260506101554 74 98 0.0 1.0 0.00 0.00 0.00 54 1016.2
20260506094557 74 138 0.0 1.0 0.00 0.00 0.00 51 1016.2
20260506093051 74 134 0.0 2.0 0.00 0.00 0.00 51 1016.2
20260506091548 74 148 0.0 1.0 0.00 0.00 0.00 49 1016.2
20260506090047 74 153 0.0 2.0 0.00 0.00 0.00 50 1016.2
20260506084614 74 158 0.0 0.0 0.00 0.00 0.00 52 1016.1
20260506083045 74 160 0.0 0.0 0.00 0.00 0.00 49 1015.9
20260506081552 74 159 0.0 0.0 0.00 0.00 0.00 47 1015.8
20260506073035 72 158 0.0 0.0 0.00 0.00 0.00 49 1015.5
20260506071534 73 158 0.0 0.0 0.00 0.00 0.00 53 1015.5
20260506061529 71 164 0.0 0.0 0.00 0.00 0.00 52 1015.3
20260506044520 69 262 0.0 0.0 0.00 0.00 0.00 57 1014.8
20260506043012 65 241 0.0 0.0 0.00 0.00 0.00 63 1014.7
20260506041508 62 270 0.0 0.0 0.00 0.00 0.00 65 1014.5
20260506040004 59 270 0.0 0.0 0.00 0.00 0.00 61 1014.3
20260506034503 57 270 0.0 0.0 0.00 0.00 0.00 60 1014.3
20260506033003 55 271 0.0 0.0 0.00 0.00 0.00 60 1014.2
20260506031502 55 271 0.0 0.0 0.00 0.00 0.00 65 1014.0
20260506030001 56 265 0.0 1.0 0.00 0.00 0.00 65 1014.1
20260506024501 55 269 0.0 0.0 0.00 0.00 0.00 70 1014.1
20260506023109 55 269 0.0 0.0 0.00 0.00 0.00 69 1014.1
20260506021622 55 269 0.0 0.0 0.00 0.00 0.00 71 1014.0
20260506020058 55 269 0.0 0.0 0.00 0.00 0.00 71 1014.2
20260506014557 55 269 0.0 0.0 0.00 0.00 0.00 68 1014.3
20260506013107 55 269 0.0 0.0 0.00 0.00 0.00 67 1014.4
20260506011614 56 269 0.0 0.0 0.00 0.00 0.00 68 1014.4
20260506010057 56 269 0.0 0.0 0.00 0.00 0.00 62 1014.4
20260506004553 56 287 0.0 0.0 0.00 0.00 0.00 67 1014.6
20260506003053 57 279 0.0 1.0 0.00 0.00 0.00 58 1014.4
20260506001554 57 303 0.0 4.0 0.00 0.00 0.00 59 1014.5